Printer-friendly version

IAU Minor Planet Center

Minor Planet Center

MPEC 2004-M25 : 2004 MO1

The following Minor Planet Electronic Circular may be linked-to from your own Web pages, but must not otherwise be redistributed electronically.


Read MPEC 2004-M24 Read MPEC 2004-M26


M.P.E.C. 2004-M25                                Issued 2004 June 19, 17:30 UT

     The Minor Planet Electronic Circulars contain information on unusual
         minor planets and routine data on comets.  They are published
   on behalf of Commission 20 of the International Astronomical Union by the
          Minor Planet Center, Smithsonian Astrophysical Observatory,
                          Cambridge, MA 02138, U.S.A.

         Supported in part by the Steven and Michele Kirsch Foundation
             Prepared using the Tamkin Foundation Computer Network

                              MPC@CFA.HARVARD.EDU
          URL http://cfa-www.harvard.edu/iau/mpc.html  ISSN 1523-6714

                                   2004 MO1

Observations:
     K04M01O*tC2004 06 17.16131 15 10 39.21 -13 42 51.2          19   V EM025691
     K04M01O tC2004 06 17.18921 15 09 50.62 -13 58 37.7                 EM025691
     K04M01O tC2004 06 17.21615 15 09 03.49 -14 13 49.6                 EM025691
     K04M01O tC2004 06 18.15979 14 41 25.11 -22 49 10.0                 EM025691
     K04M01O tC2004 06 18.17000 14 41 06.37 -22 54 29.7                 EM025691
     K04M01O tC2004 06 18.17685 14 40 53.81 -22 58 04.4                 EM025691
     K04M01O tC2004 06 18.17996 14 40 48.02 -22 59 42.0                 EM025691
     K04M01O tC2004 06 18.18318 14 40 41.97 -23 01 23.5                 EM025691
     K04M01O tC2004 06 18.19067 14 40 28.28 -23 05 15.2                 EM025691
     K04M01O tC2004 06 18.19364 14 40 22.93 -23 06 47.4                 EM025691
     K04M01O tC2004 06 18.20042 14 40 10.33 -23 10 19.6                 EM025691
     K04M01O  C2004 06 19.21070 14 09 22.59 -31 15 26.4          19.7 R EM025651
     K04M01O  C2004 06 19.21266 14 09 18.97 -31 16 16.1          19.8 R EM025651
     K04M01O  C2004 06 19.21479 14 09 14.94 -31 17 13.5          20.3 R EM025651
     K04M01O 5C2004 06 19.22110 14 09 03.89 -31 19 59.1          19.2 R EM025673
     K04M01O 5C2004 06 19.22280 14 09 00.74 -31 20 44.0                 EM025673
     K04M01O 5C2004 06 19.22529 14 08 55.97 -31 21 48.8                 EM025673
     K04M01O 5C2004 06 19.22922 14 08 48.64 -31 23 30.0                 EM025673
     K04M01O 5C2004 06 19.23653 14 08 34.95 -31 26 40.8                 EM025673
     K04M01O 5C2004 06 19.24157 14 08 25.61 -31 28 50.4                 EM025673

Observer details:
651 Grasslands Observatory, Tucson.  Observer J. E. McGaha.  0.62-m f/5.1
    Newtonian + CCD.
673 Table Mountain Observatory, Wrightwood.  Observer J. Young.  0.6-m
    reflector + CCD.
691 Steward Observatory, Kitt Peak.  Observers R. S. McMillan, L. S. Garrett.
    Measurers M. Block, A. S. Descour.  0.9-m f/3 reflector + CCD.

Orbital elements:
2004 MO1
Epoch 2004 June 4.0 TT = JDT 2453160.5                  MPC
M 348.17409              (2000.0)            P               Q
n   0.31090002     Peri.  207.12090     +0.14963050     +0.53474474
a   2.1580204      Node    83.65034     -0.68517923     +0.66249712
e   0.5155465      Incl.   56.80306     -0.71283949     -0.52454325
P   3.17           H   23.3           G   0.15
From 17 observations 2004 June 17-19.

Ephemeris:
2004 MO1                 a,e,i = 2.16, 0.52, 57                  q = 1.0455
Date    TT    R. A. (2000) Decl.     Delta      r     Elong.  Phase     V
2004 06 14    16 28.14   +13 05.6    0.104    1.098   140.6    36.0    20.1
2004 06 15    16 06.46   +05 43.8    0.096    1.095   143.9    33.2    19.8
2004 06 16    15 42.10   -02 51.3    0.090    1.091   145.1    32.2    19.6
2004 06 17    15 15.20   -12 10.3    0.088    1.088   143.2    34.0    19.6
2004 06 18    14 46.21   -21 23.2    0.090    1.085   138.3    38.5    19.8
2004 06 19    14 15.90   -29 39.7    0.094    1.081   131.8    44.4    20.1
2004 06 20    13 45.29   -36 29.4    0.102    1.078   125.2    50.3    20.4
2004 06 21    13 15.46   -41 46.8    0.112    1.076   119.2    55.6    20.7
2004 06 22    12 47.33   -45 43.0    0.124    1.073   113.9    60.0    21.1
2004 06 23    12 21.51   -48 34.7    0.138    1.070   109.5    63.5    21.4
2004 06 24    11 58.31   -50 37.9    0.152    1.068   105.8    66.3    21.7

Kyle E. Smalley              (C) Copyright 2004 MPC           M.P.E.C. 2004-M25

Read MPEC 2004-M24 Read MPEC 2004-M26


Our Web policy. Index to the CBAT/MPC/ICQ pages.


Valid HTML 4.01!